Starlink 5334

operational
NORAD ID: 56509 Int'l Des: 2023-065 Owner: SPXS Country: US Constellation: starlink
LEOCIRCULAR

Starlink 5334について

説明を読み込み中...

リアルタイム位置

3D地球を読み込み中...

次回通過

高度履歴

Altitude vs Time

uPlot chart will show altitude changes over time

軌道要素

1 56509U 23065G 25259.92040656 -.00000526 00000-0 -23885-4 0 9991
2 56509 43.0027 74.6999 0001227 232.0556 128.0175 15.02529020130488
Epoch: Sep 16, 2025 • Age: 26 hours

現在のステータス

高度 558.8 km
速度 7.58 km/s
衛星直下点 7.49°N, 84.83°E
打ち上げ日 May 14, 2023
運用期間 2.3 years
タイプ internet

技術仕様

分類 Payload
質量 305.00 kg
乾燥質量 290.00 kg
総質量 305.00 kg
長さ 0.20 m
直径 2.80 m
スパン 9.00 m
形状 Box + pan
製造者 SPXS
バスタイプ Starlink
フェーズステータス In Orbit
所有者/国 SPXS/US

大規模コンステレーション

Loading constellations...